Location: Sternwarte Stuttgart
(48.7670°N, 9.1830°E)
Time: 12:52:51
(UTC+02:00)

Gbstr 26 Del rocket - Pass Details

Date: 24 January 2019
Orbit: 493 x 1264 km, 51.8° (Epoch: 19 April)

Event Time Altitude Azimuth Distance (km) Brightness Sun altitude
Exits shadow 07:09:07 - 246° (WSW) 3,635 6.6 -9.0°
Rises 07:09:08 0° 246° (WSW) 3,628 6.5 -9.0°
Reaches altitude 10° 07:11:32 10° 246° (WSW) 2,787 6.0 -8.6°
Maximum altitude 07:18:25 89° 160° (SSE) 1,151 4.4 -7.6°
Drops below altitude 10° 07:26:26 10° 70° (ENE) 3,216 7.5 -6.3°
Sets 07:29:24 0° 70° (ENE) 4,214 8.1 -5.9°
